Regional Weather Roundup
Issued by NWS Upton, NY

Home | Current Version | Previous Version | Text Only | Print | Product List | Glossary On
Versions: 1 2 3 4 5 6 7 8 9 10 11 12 13 14 15 16 17 18 19 20 21 22 23 24 25 26 27
000
ASUS41 KOKX 200609
RWROKX

REGIONAL WEATHER ROUNDUP
NATIONAL WEATHER SERVICE NEW YORK NY
200 AM EDT WED SEP 20 2017

NOTE: "FAIR" INDICATES FEW OR NO CLOUDS BELOW 12,000 FEET WITH NO
SIGNIFICANT WEATHER AND/OR OBSTRUCTIONS TO VISIBILITY.

NYZ071-072-176-178-NJZ106-104-200700-
NEW YORK CITY METRO AREA

CITY           SKY/WX    TMP DP  RH WIND       PRES   REMARKS
Central Park   CLOUDY    72  64  76 NE9G20    29.88F
Bronx Bot Gard   N/A     70  63  78 NW5       29.85F
LaGuardia APRT CLOUDY    72  65  78 N14       29.84S
Kennedy INTL   CLOUDY    72  64  76 N17G26    29.83F
Breezy Point     N/A     72 N/A N/A N17G28      N/A
Newark/Liberty CLOUDY    72  64  76 N18G26    29.84F
Teterboro      CLOUDY    72  64  76 N14G25    29.84F
$$

NYZ177-179-078>081-200700-
LONG ISLAND NEW YORK

CITY           SKY/WX    TMP DP  RH WIND       PRES   REMARKS
Jones Beach      N/A     70 N/A N/A N24G32      N/A
Matinecock PT    N/A     72 N/A N/A NE21G26     N/A
Farmingdale    CLOUDY    70  65  84 NE20G28   29.82S
MacArthur/ISP  CLOUDY    69  67  93 N22G29    29.81F
Shirley        CLOUDY    71  67  87 N13G22    29.81F
Mt Sinai Harb    N/A    N/A N/A N/A N21G28      N/A
Westhampton    LGT RAIN  69  65  86 N21G30    29.80F
East Hampton   CLOUDY    67  65  93 N14G24    29.79F
Montauk          N/A     69  67  93 NE16G29   29.80F
$$

NYZ052-065-067-200700-
HUDSON VALLEY

CITY           SKY/WX    TMP DP  RH WIND       PRES   REMARKS
White Plains   MOCLDY    70  63  78 N15G24    29.85F
Larchmont Harb   N/A     72 N/A N/A N17G24      N/A
Croton On Huds   N/A     70 N/A N/A N3G10       N/A
Newburgh       NOT AVBL
Montgomery     MOCLDY    70  62  76 N13       29.92S
Poughkeepsie   CLOUDY    69  62  78 N6        29.91S
Albany         MOCLDY    64  60  87 N5        29.99S
$$

NJZ001-105-106-008-010-013-015-019>022-104-200700-
NEW JERSEY

CITY           SKY/WX    TMP DP  RH WIND       PRES   REMARKS
Newark/Liberty CLOUDY    72  64  76 N18G26    29.84F
Teterboro      CLOUDY    72  64  76 N14G25    29.84F
Caldwell       CLOUDY    71  65  81 VRB6      29.87F
Somerville     NOT AVBL
Linden         MOCLDY    73  63  71 NE10G20   29.84F
Perth Amboy      N/A     72 N/A N/A N13G20      N/A
Sussex         CLOUDY    70  63  78 N9        29.92S
Andover          N/A     70  63  78 VRB5      29.92R
Trenton        MOCLDY    71  64  78 N13       29.85S
Millville      CLOUDY    73  67  81 NW9       29.82S
Atlantic City  CLOUDY    70  67  90 N13       29.79F
Wrightstown    CLOUDY    70  65  83 N13       29.80S
Toms River     CLOUDY    71  66  84 N13       29.81F
Belmar         CLOUDY    71  65  81 N14G22    29.83F
$$

PAZ047>061-062-071-200700-
EASTERN PENNSYLVANIA

CITY           SKY/WX    TMP DP  RH WIND       PRES   REMARKS
Philadelphia   CLOUDY    71  63  75 N13       29.85S
Allentown      CLOUDY    72  61  68 N7        29.91S
Scranton       CLEAR     63  61  93 S5        29.97S
$$

CTZ002-004>006-009-010-012-RIZ004-006-007-MAZ004-011-015-200700-
SOUTHERN NEW ENGLAND
 IN CT

CITY           SKY/WX    TMP DP  RH WIND       PRES   REMARKS
Bradley INTL   CLOUDY    70  65  84 N12       29.92S
Hartford       CLOUDY    71  65  81 N14G20    29.90S
Danbury        CLOUDY    71  64  78 NE12      29.90F
Wtrbury/Oxford CLOUDY    68  64  88 NE16G26   29.90F
Norwalk Harbor   N/A     70 N/A N/A N21G29      N/A
Bridgeport     CLOUDY    71  65  81 N18G31    29.84S
Meriden        CLOUDY    70  64  81 N8        29.88F
New Haven      CLOUDY    70  64  81 N18G30    29.84F
Chester        CLOUDY    70  64  83 NE12G18   29.86F
Groton         MOCLDY    68  65  90 N17G29    29.82F
Wilimantic     CLOUDY    69  66  90 N14       29.89F

 IN RI

CITY           SKY/WX    TMP DP  RH WIND       PRES   REMARKS
Providence     LGT RAIN  66  66 100 N18       29.88F
Block Island   CLOUDY    66  65  96 N22G31    29.79  FOG
Westerly       CLOUDY    69  66  90 N14G23    29.83F
 IN MA

CITY           SKY/WX    TMP DP  RH WIND       PRES   REMARKS
Boston         CLOUDY    64  64 100 N16       29.93F FOG
Worcester      FOG       63  62  97 NE14G25   29.96F VSB 1/4
Westfield      CLOUDY    70  65  84 N13       29.94F
Provincetown   HVY RAIN  64  63  96 NE18G24   29.88F FOG
Nantucket      FOG       66  66 100 NE18G31   29.79F VSB 3/4
$$

ANZ330-335-338-340-345-350-353-355-200700-
COASTAL MARINE OBSERVATIONS


STATION/POSITION TIME  SKY/WX   TEMP    WIND        PRES    VSBY  WAVE
                                AIR SEA DIR/SP/G                  HT/PER
                 (UTC)          (F)     (DEG/KT/KT) (MB)    (MI)  (FT/S)
NY HARB ENTRANCE 0450            71 70   10/ 23/ 27 1008.1          9/12
20 S FIRE ISLAND 0550            69 67   20/ 25/ 31 1006.9         12/11
GREAT SOUTH BAY  0515            70 72   10/ 17/ 23   N/A
23 SSW MONTAUK P 0550            67 67              1006.6         14/13
15 E BARNEGAT LI 0530               69                N/A          11/12
HUDSON CANYON    0450            69 69   20/ 31/ 37 1001.2         18/11
KINGS POINT      0542                    60/  8/ 20 1011.5
EXECUTION ROCKS  0545            72      40/ 17/ 23   N/A
WESTERN LI SOUND NOT AVBL
CENTRAL LI SOUND NOT AVBL
EASTERN LI SOUND NOT AVBL
ROBBINS REEF     0542                    10/ 20/ 26 1011.0
$$


>>>>>>>>>>>>>>>>>>>>>>>>>>>> KEY <<<<<<<<<<<<<<<<<<<<<<<<<<<
>                                                          <
>     SKY/WX - Sky Condition/Present Weather               <
>     TMP    - Temperature in Fahrenheit                   <
>     DP     - Dew Point in Fahrenheit                     <
>     RH     - Relative Humidity in Percent                <
>     WIND   - Direction (from) and Speed in MPH           <
>     PRES   - Mean Sea Level Pressure (inches of Hg)      <
>     WCI    - Wind Chill Index                            <
>     VSB    - VISIBILITY IN MILES                         <
>     HX     - HEAT INDEX                                  <
>     TC     - TEMPERATURE IN CELSIUS                      <
>     VRB    - VARIABLE WIND DIRECTION                     <
>                                                          <
>>>>>>>>>>>>>>>>>>>>>>>>>>>> KEY <<<<<<<<<<<<<<<<<<<<<<<<<<<




USA.gov is the U.S. government's official web portal to all federal, state and local government web resources and services.